SCP
0 0 0 0 0 0 0 0 0 0 0 0 1 1 1 1 1 2 3 3 4 4 4 3 3 3 4 5 5 5 4 5 5 5 4 3 4 4 5 5 5 5 5 4
0 0 0 0 0 0 0 0 0 0 0 0 1 1 1 1 1 2 3 3 4 4 4 4 4 3 4 5 6 5 4 5 5 5 4 4 4 5 6 6 5 5 5 5
0 0 0 0 0 0 0 0 0 0 0 0 1 1 1 1 1 2 3 3 3 3 4 4 5 4 4 5 5 5 5 5 6 5 5 5 5 6 6 5 4 4 4 4
0 0 0 0 0 0 0 0 0 0 0 0 1 1 1 1 1 2 3 3 3 3 3 5 5 4 4 4 5 5 5 6 6 6 6 6 6 6 7 6 5 5 4 4
0 0 0 0 0 0 0 0 0 0 0 0 1 1 1 1 1 2 3 3 3 2 3 4 5 4 4 4 5 5 6 6 7 7 7 7 7 7 8 7 7 6 5 4
0 0 0 0 0 0 0 0 0 0 0 0 0 1 1 1 1 2 3 3 3 3 4 5 6 5 5 5 6 6 6 7 7 7 7 8 7 7 7 9 9 8 5 4
0 0 0 0 0 0 0 0 0 0 0 0 1 1 1 1 1 3 4 4 4 4 5 6 7 6 6 6 7 7 7 7 7 8 8 7 6 6 6 8 9 7 5 3
0 0 0 0 0 0 0 0 0 0 0 1 1 1 1 1 2 4 5 6 6 6 7 7 7 7 6 7 7 7 7 7 7 7 8 6 5 5 5 6 7 6 4 3
0 0 0 0 0 0 0 0 0 0 0 0 1 1 2 2 3 5 7 7 7 7 8 8 7 6 6 6 6 6 7 7 6 6 6 5 5 5 5 5 5 5 4 3
0 0 0 0 0 0 0 0 0 0 0 0 1 1 2 2 3 6 8 7 6 7 7 7 6 5 5 5 5 6 7 6 6 5 5 5 5 5 6 5 5 4 4 4
0 0 0 0 0 0 0 0 0 0 0 0 0 1 2 2 4 7 8 6 5 5 5 4 4 4 4 4 5 6 6 6 6 6 5 5 6 6 7 6 6 5 5 5
0 0 0 0 0 0 0 0 0 0 0 0 1 1 2 2 4 7 7 6 5 4 4 4 5 5 5 5 5 5 5 5 6 6 6 6 6 7 7 7 7 7 6 6
1 1 0 0 0 0 0 0 0 0 0 1 1 2 2 3 5 6 7 6 6 6 6 7 7 7 7 7 6 6 5 5 6 6 6 6 6 7 7 7 7 8 8 8
0 0 0 0 0 0 0 0 0 0 0 1 2 3 2 3 5 6 6 6 7 7 8 9 10 10 10 9 8 7 6 6 6 6 6 5 6 6 6 7 8 8 8 9
0 0 0 0 0 0 0 0 0 0 1 1 2 3 3 4 5 6 6 6 6 7 7 9 12 13 12 10 9 9 8 8 7 6 6 5 6 6 7 8 9 8 8 8
0 0 0 0 0 0 0 0 1 1 1 2 2 3 3 5 6 7 6 6 6 6 7 10 13 14 12 12 12 11 10 9 8 6 5 6 6 8 9 10 10 9 8 8
1 1 1 0 0 0 0 1 1 1 1 2 3 3 3 5 7 9 9 9 9 8 10 13 15 16 15 15 15 12 10 9 7 6 5 5 7 9 12 13 12 10 8 8
1 1 1 0 0 0 1 1 1 1 2 3 3 3 3 5 7 9 11 11 12 13 14 16 17 19 19 18 15 12 11 9 7 6 5 5 7 10 14 17 15 12 9 7
1 1 1 1 0 0 1 1 1 1 2 3 4 4 4 5 6 7 10 12 14 17 18 17 16 19 19 16 14 13 12 10 8 7 7 6 7 9 15 20 19 15 10 7
1 1 1 1 1 1 1 1 1 1 2 4 6 6 5 5 5 8 12 15 17 18 16 14 15 16 15 13 14 14 12 10 9 9 8 7 7 8 14 20 21 16 10 7
1 1 1 1 1 1 1 1 1 2 3 5 7 8 7 7 7 11 17 19 18 15 14 13 15 17 15 14 14 14 12 10 10 11 10 9 8 8 11 18 20 16 10 7
1 1 1 1 1 2 2 3 4 4 5 5 7 9 10 11 13 17 22 21 18 16 16 16 18 18 18 16 14 13 11 11 11 12 12 11 10 8 10 15 18 14 8 5
1 2 1 2 2 3 3 5 7 8 7 6 6 9 12 14 18 23 24 21 19 18 18 17 16 17 17 16 14 12 11 11 13 14 15 15 12 10 11 14 14 10 6 5
2 2 2 3 4 4 4 6 8 10 9 6 6 8 11 17 24 26 24 20 18 16 15 14 15 15 17 16 14 12 13 14 16 18 18 17 15 13 12 11 9 6 5 4
3 3 4 5 5 4 4 6 7 9 8 7 7 8 14 24 28 24 19 16 14 13 13 14 16 18 19 18 16 14 15 17 18 20 19 16 14 13 10 8 6 4 4 4
3 3 5 7 6 5 4 5 6 8 7 7 7 9 19 31 30 21 15 12 12 12 13 15 19 21 21 19 16 14 15 18 20 21 19 16 13 11 9 6 5 4 3 4
Wind_Speed
12 11 9 8 7 5 3 3 4 4 5 4 4 6 9 9 7 9 10 10 10 10 10 9 8 9 8 7 6 5 4 3 2 1 2 2 2 1 2 2 3 3 2 2
11 12 10 8 7 7 7 6 5 3 3 2 3 3 3 6 6 8 10 11 11 11 11 10 9 8 8 7 6 5 4 4 3 2 1 1 1 2 2 1 2 2 2 2
13 8 7 9 10 9 8 6 4 3 3 4 3 3 3 4 6 8 10 11 11 12 13 11 9 8 8 8 7 5 4 4 3 2 2 1 1 1 1 2 2 2 2 2
11 9 8 9 9 10 8 5 4 5 6 5 5 3 5 7 6 7 10 10 11 12 13 11 10 9 8 8 8 6 5 4 3 2 2 2 2 1 0 1 1 1 2 2
10 10 10 10 9 11 8 5 6 8 9 8 5 3 4 7 8 7 8 10 11 12 13 12 11 9 9 8 8 7 6 4 3 2 1 1 1 1 0 0 1 1 1 1
10 9 10 10 10 10 8 7 9 10 8 8 6 4 4 5 6 8 8 9 10 11 13 12 11 9 8 8 8 8 6 4 4 3 2 1 0 0 1 0 0 1 1 1
12 12 10 10 11 10 8 7 6 7 6 4 4 4 3 7 9 10 11 10 11 11 12 12 12 11 9 8 8 8 7 5 4 3 2 2 1 1 1 1 0 0 0 0
14 14 14 12 12 9 10 11 8 7 5 2 3 3 2 5 8 10 11 11 11 12 12 13 12 11 9 9 8 8 7 5 5 4 2 1 2 1 1 1 1 0 0 1
11 10 13 13 11 11 9 10 10 9 8 4 2 1 2 2 5 10 12 12 11 11 12 12 12 11 9 8 7 7 7 6 5 4 3 2 2 1 0 0 0 1 1 1
11 8 9 10 10 12 10 9 6 7 7 5 3 2 1 4 5 8 11 12 12 11 12 12 11 11 10 9 8 7 7 5 4 4 3 3 2 2 1 1 2 2 2 2
11 10 10 10 11 12 10 10 7 6 8 8 4 1 3 2 3 4 9 10 11 10 11 11 10 10 10 9 8 7 7 6 4 3 2 2 2 2 2 1 1 1 1 2
10 10 10 12 11 12 12 11 10 7 7 8 5 2 5 3 1 2 5 10 11 10 10 11 10 10 9 9 9 8 7 6 5 4 3 2 2 2 2 2 1 1 1 1
5 7 8 11 10 11 11 11 11 11 8 8 6 2 6 5 3 4 6 10 9 9 10 10 10 8 8 8 8 7 7 6 5 5 4 3 2 2 2 1 2 2 2 2
6 8 11 12 8 8 12 14 13 12 9 7 5 3 6 6 3 5 6 8 9 8 8 9 8 7 6 6 6 6 5 5 5 5 4 3 2 2 2 2 2 2 2 1
7 10 13 15 13 10 8 10 12 12 10 8 4 3 4 6 5 4 5 7 8 8 7 7 7 6 6 6 5 5 4 4 4 4 4 3 3 2 2 2 2 2 1 2
6 9 11 14 15 13 12 11 10 10 9 8 6 2 3 5 6 5 5 6 7 6 7 7 7 7 6 5 5 5 4 4 4 3 3 3 3 3 2 2 2 2 2 2
7 6 9 12 14 14 14 11 11 10 9 6 5 2 3 4 4 5 5 6 5 5 5 6 6 6 5 5 5 5 5 4 4 4 2 2 3 3 2 2 2 2 2 2
7 6 6 11 12 17 9 8 10 8 6 3 2 2 4 5 6 7 6 6 4 5 5 5 5 6 5 5 5 5 4 4 4 4 4 2 2 3 2 2 1 1 2 2
9 6 8 10 13 14 10 8 8 6 4 1 2 2 1 3 6 6 5 6 4 5 5 3 4 5 5 5 5 5 4 4 4 4 4 3 3 3 2 2 1 1 1 2
10 7 9 10 12 12 6 5 5 6 4 1 2 2 1 0 2 4 4 5 5 5 5 4 3 5 5 4 5 5 4 4 4 3 3 3 3 3 3 2 2 1 1 2
10 10 12 13 13 9 4 5 6 6 1 2 3 3 3 4 4 6 5 5 5 5 5 4 4 4 4 4 4 4 4 3 3 3 3 3 3 3 3 2 2 2 2 2
11 10 10 11 13 7 3 3 2 1 3 2 3 4 4 4 6 7 6 5 4 5 5 4 4 3 4 4 4 4 3 3 3 3 3 3 2 2 3 2 2 2 2 3
8 7 5 5 3 2 4 3 3 3 2 2 3 3 3 3 5 6 5 4 3 4 4 3 3 3 3 4 4 4 3 3 3 3 3 3 3 2 3 3 2 2 2 2
5 5 5 4 3 1 1 2 3 3 3 2 2 2 1 1 3 4 4 3 3 3 2 2 3 3 3 3 3 3 3 3 3 3 3 3 3 3 2 1 2 1 1 1
5 5 6 5 4 3 2 2 2 3 2 2 2 1 1 2 3 2 3 3 3 2 2 2 2 2 2 3 3 4 4 4 4 3 3 3 3 4 3 3 3 2 2 1
6 5 4 4 2 2 2 2 3 2 2 2 2 1 1 2 2 2 2 2 2 2 2 2 2 2 2 3 3 3 4 4 4 4 4 4 4 4 4 4 3 6 4 5
Wind_Direction
229 235 237 243 245 254 247 224 229 191 173 179 144 133 148 155 163 149 150 151 148 150 151 148 146 140 138 136 137 141 150 143 159 162 181 185 186 204 183 178 169 171 194 192
239 232 240 249 241 243 248 237 239 219 164 154 114 94 133 155 168 159 154 155 153 153 148 148 150 149 144 141 144 148 153 153 167 162 184 203 190 212 183 151 146 186 198 204
238 241 237 241 250 243 247 246 235 248 227 193 169 155 176 217 184 170 154 153 155 158 154 153 154 154 151 150 153 153 152 153 168 163 179 186 180 257 129 141 164 195 210 220
237 243 249 253 256 259 254 259 248 242 244 235 215 200 194 189 199 174 157 155 158 156 152 153 156 158 157 154 153 143 148 152 158 176 188 200 162 170 189 167 158 180 209 226
233 232 241 246 256 266 269 277 271 261 255 257 234 202 182 186 188 175 164 159 160 153 152 155 158 157 157 156 153 146 144 153 161 180 172 220 170 158 173 141 132 161 194 232
244 243 241 244 247 257 269 273 270 267 260 260 270 252 165 162 176 168 161 157 152 148 148 149 152 152 157 155 150 147 148 157 163 177 178 191 210 21 356 338 214 190 184 202
231 237 235 244 239 230 239 251 256 251 245 257 293 279 152 152 165 159 154 151 147 143 143 146 151 155 159 156 152 149 151 158 168 178 183 184 197 222 257 280 276 292 343 147
219 219 219 227 241 238 225 243 249 261 269 263 289 296 131 122 132 137 140 144 145 148 148 150 156 157 159 159 155 151 153 160 170 176 173 182 184 214 220 264 305 13 351 4
242 229 208 209 229 245 242 244 260 263 264 273 247 191 126 115 141 141 141 144 149 149 146 149 153 154 157 158 156 155 153 159 172 173 164 182 179 195 116 38 61 34 6 14
262 269 239 204 221 232 249 262 266 272 276 267 228 187 267 219 201 163 150 148 148 147 150 150 153 155 159 158 153 152 150 156 167 167 176 170 172 161 138 61 49 49 20 20
247 250 250 220 220 235 227 243 259 280 285 285 263 165 128 233 227 172 151 147 144 154 152 150 151 153 153 151 151 150 150 153 161 157 154 149 153 147 135 127 107 79 54 44
240 249 245 240 223 231 249 243 240 245 264 273 279 132 128 133 119 194 154 146 149 159 151 146 147 148 153 155 155 155 157 161 162 152 152 145 129 132 140 135 123 102 90 82
267 260 254 242 230 212 237 248 250 251 254 266 271 162 133 120 127 167 147 144 151 145 140 139 142 147 155 155 154 154 157 161 157 151 148 141 145 134 130 119 109 109 104 94
265 254 255 254 252 225 222 238 246 252 257 259 251 163 131 127 142 143 124 130 137 135 129 132 133 133 139 139 139 140 150 147 148 143 142 137 133 133 138 127 113 105 109 114
248 252 258 268 274 267 250 244 247 245 254 262 253 187 152 136 117 113 130 135 132 132 131 132 133 128 126 126 128 127 136 134 134 142 143 134 131 131 125 118 118 117 119 113
239 268 269 264 266 266 267 260 253 255 251 254 255 258 103 107 118 139 131 133 128 133 140 137 133 135 136 134 134 129 124 121 119 116 135 138 138 140 138 132 128 124 116 110
228 248 265 262 258 262 253 257 256 249 250 255 256 239 125 118 136 139 128 131 135 141 133 133 135 132 133 138 138 135 133 135 134 126 123 140 151 156 153 146 130 138 129 116
238 247 253 260 262 256 257 250 251 252 261 245 211 229 156 141 130 117 120 118 122 118 118 120 132 137 140 143 147 140 145 147 145 145 151 156 161 148 131 124 131 129 120 120
227 229 248 254 252 250 253 249 247 251 247 237 223 259 219 137 126 105 104 113 123 117 109 111 139 140 140 147 147 146 151 152 153 152 150 154 153 143 139 144 143 123 128 136
225 207 236 248 254 256 255 278 287 258 225 341 339 343 5 113 193 108 89 100 102 110 111 110 121 133 133 140 146 149 156 153 154 153 149 142 137 140 142 141 132 133 145 134
218 213 226 243 250 252 287 304 281 251 248 7 6 36 40 52 62 90 89 80 82 97 102 104 104 120 132 139 142 145 148 151 144 135 130 130 135 143 140 129 125 135 136 125
223 218 222 241 249 244 333 296 321 24 36 49 43 45 57 73 95 100 96 93 97 95 98 104 107 113 124 129 135 139 141 135 129 130 133 131 137 146 131 133 143 149 146 146
235 242 239 233 232 61 30 34 62 51 20 31 55 62 65 71 108 117 113 110 111 111 116 119 120 122 120 130 136 148 141 131 132 133 134 134 134 117 127 150 166 171 170 173
228 250 248 234 187 159 26 5 24 30 18 28 30 39 67 84 105 114 113 111 113 114 120 119 115 124 128 132 136 140 136 130 140 145 145 146 145 137 132 163 156 138 139 158
294 270 244 230 234 232 236 300 324 343 353 8 15 345 344 86 105 118 125 130 136 136 138 135 133 144 147 138 140 142 143 149 154 157 160 163 156 140 122 88 54 74 69 84
270 281 270 255 267 276 271 281 289 304 319 329 333 6 48 105 122 133 144 151 149 150 141 136 143 154 152 151 153 153 159 158 166 179 185 181 164 157 155 141 106 52 70 84